תחנות METAR סמוכות

 

LLBG - Ben-Gurion(Civ/M, Israel
Distance from station: 'מ 83km
עודכן: 05/08/2020 19:50
Few Clouds
Few Clouds
 רוח מ 'מדמ
רוח: 'מדמ 13 km/h
טמפרטורה: 28°C
עומס חום: 30°C
נקודת הטל: 22°C
לחות: 70%
ברומטר: 1005 hPa
עננים: Few Clouds
ראות: 10 km
Cloud details: Few Clouds 762 m
2020/08/05 16:50 LLBG 051650Z 25007KT 9999 FEW025 28/22 Q1005 NOSIG
LLSD - Sde Dov Airport, Israel
Distance from station: 'מ 75km
עודכן: 30/06/2019 23:50
לא מעודכן
מעונן חלקית
מעונן חלקית
 רוח מ משתנה
רוח: משתנה 6 km/h
טמפרטורה: 27°C
עומס חום: 30°C
נקודת הטל: 23°C
לחות: 79%
ברומטר: 1007 hPa
עננים: מעונן חלקית
ראות: 10 km
Cloud details: מעונן חלקית 518 m
2019/06/30 20:50 LLSD 302050Z VRB03KT 9999 SCT017 27/23 Q1007
 
LLHA - Haifa (isr-Afb), Israel
Distance from station: 'צמ 129km
עודכן: 05/08/2020 19:50
Few Clouds
Few Clouds
 רוח מ 'מצמ
רוח: 'מצמ 13 km/h
טמפרטורה: 29°C
עומס חום: 32°C
נקודת הטל: 22°C
לחות: 66%
ברומטר: 1004 hPa
עננים: Few Clouds
ראות: 10 km
Cloud details: Few Clouds 762 m
2020/08/05 16:50 LLHA 051650Z 29007KT 250V320 9999 FEW025 29/22 Q1004
LLIB - Ben Ya Akov, Israel
Distance from station: 'צמ 183km
עודכן: 31/03/2020 16:50
לא מעודכן
בהיר
בהיר
 רוח מ 'ד
רוח: 'ד 11 km/h
טמפרטורה: 25°C
נקודת הטל: 8°C
לחות: 34%
ברומטר: 1006 hPa
סיכום: בהיר
ראות: greater than 10 km
2020/03/31 13:50 LLIB 311350Z 19006KT 120V250 CAVOK 25/08 Q1006
 
LLOV - Ovda (isr-Afb/Ci, Israel
Distance from station: 'דדמ 246km
עודכן: 31/03/2019 22:50
לא מעודכן
בהיר
בהיר
 רוח מ 'מדמ
רוח: 'מדמ 13 km/h
טמפרטורה: 12°C
נקודת הטל: 0°C
לחות: 44%
ברומטר: 1012 hPa
סיכום: בהיר
ראות: greater than 10 km
2019/03/31 19:50 LLOV 311950Z 24007KT CAVOK 12/00 Q1012
LLET - Elat/J. Hozman(A, Israel
Distance from station: 'דדמ 287km
עודכן: 18/03/2019 17:50
לא מעודכן
בהיר
בהיר
 רוח מ 'צצמ
רוח: 'צצמ 30 km/h
טמפרטורה: 24°C
נקודת הטל: -1°C
לחות: 19%
ברומטר: 1016 hPa
סיכום: בהיר
ראות: greater than 10 km
2019/03/18 15:50 LLET 181550Z 02016KT CAVOK 24/M01 Q1016
 
LCLK - Larnaca/Larnax A, Cyprus
Distance from station: 'צ 321km
עודכן: 05/08/2020 19:30
בהיר
בהיר
 רוח מ 'דמ
רוח: 'דמ 30 km/h
טמפרטורה: 30°C
עומס חום: 37°C
נקודת הטל: 26°C
לחות: 79%
ברומטר: 1001 hPa
סיכום: בהיר
ראות: greater than 10 km
2020/08/05 16:30 LCLK 051630Z 22016KT CAVOK 30/26 Q1001 NOSIG